sat.trackr.live / text

‹ back to catalog

STARLINK-3140

NORAD 49460 · 2021-104BE

PAYLOAD ACTIVE UNKNOWN

§ Identity

Operator
Country
US
Launch date
2021-11-13
Launch site
AFETR
Launch vehicle
Mass (kg)
RCS (m²)

Purposes: comms

External: N2YO · Heavens-Above · Gunter

§ Orbital elements

Epoch: 2026-09-15T00:00:02.000160Z

Period
93.85 min
Inclination
53.1583°
Eccentricity
0.0001269
Mean motion
15.34363518 rev/d
Perigee alt
461.9 km
Apogee alt
463.7 km
Semi-major
6,840.9 km
B*
1.4139e-3
RAAN
77.0860°
Arg perigee
84.4169°
Mean anomaly
282.3288°
Rev number
584

§ Raw data

STARLINK-31401 49460U 21104BE  26258.00002315  .00047643  00000+0  14139-2 0  99982 49460  53.1583  77.0860 0001269  84.4169 282.3288 15.34363518  5847

JSON: /api/v1/satellites/49460 · /tle

For live sub-satellite position, see the globe view (requires WebGL).

§ Visibility from observer

Set your observer location to see the next 7 days of passes ≥ 10°. The values pass through the URL so the page stays shareable.

No JS? Fill the form by hand. The geolocation button needs JavaScript.